IPERDRONE.0 (60520 NORAD) Tracking and Keplerian Element Data

This shows tracking and keplerian element data for the satellite.

Feedback or suggestion? Click here.




ElementValue
Catalog60520
NameIPERDRONE.0
Epoch Orbit865
Epoch Day286.78213882
Epoch Year2024
RAAN1.5549
Inclination97.436
Eccentricity0.0005774
Argument of Perigee305.7842
Mean Anonmoly54.2857
Mean Motion15.21503405
Decay Rate0.0002169
L11 60520U 24149BE 24286.78213882 .00021690 00000+0 96455-3 0 9993
L22 60520 97.4360 1.5549 0005774 305.7842 54.2857 15.21503405 8656



Live tracking and technical data element details for IPERDRONE.0 (NORAD 60520). IPERDRONE.0 can be tracked NOW for your location showing map with azimuth and elevation plus other details from your city location.







IsCatalogInMostPopularTable: catalog: 60520, numindb: 5
Update: records affected: 1



GetName: 60520 IPERDRONE.0

Hit Count: updated at: Wed, 04 Dec 2024 19:22:09 GMT